Погода в Оттаве

Канада     45°24′06″N   75°41′58″W
темп.,
°C
ветер,
м/с
пор.,
м/с
влажн.,
%
обл.,
%
осадки,
мм/ч
давл.,
гПа
погр.,
м
12 июня, сб
сб1223:00+14сз22860 0.0 101221
02:00+12ссз22850 0.0 101216
05:00+11с22785 0.0 101129
08:00+16ссв235224 0.0 1012207
11:00+22ссв2335100 0.0 10121454
14:00+24сз2329100 0.0 10112316
17:00+24з3444100 0.0 10101337
20:00+19сз2262100 0.0 101027
13 июня, вс
вс1323:00+16ссз1159100 0.0 101012
02:00+13сз116795 0.0 101112
05:00+12сз11695 0.0 101111
08:00+17св006112 0.0 1011171
11:00+22юз226151 0.0 1011806
14:00+23ссз126043 0.0 1009888
17:00+25ю1252100 0.0 10081532
20:00+18ссв009099 2.3 100813
14 июня, пн
пн1423:00+15ююв229758 2.7 100829
02:00+14вюв22973 2.8 100729
05:00+13в119990 0.4 100624
08:00+15ююв1297100 2.3 1007212
11:00+17св3593100 2.9 1007453
14:00+16зюз3696100 4.9 1006373
17:00+16юз2496100 4.9 1006336
20:00+16зюз2495100 5.0 1006172
15 июня, вт
вт1523:00+15зюз1194100 0.0 100616
02:00+14зсз2295100 0.2 100657
05:00+13сз389515 0.9 1007276
08:00+12сз4108467 0.9 1009384
11:00+19сз464790 0.0 1010965
14:00+22ссз46397 0.0 10091893
17:00+22ссз56371 0.0 10091987
20:00+16ссз511402 0.0 1010411
16 июня, ср
ср1623:00+15ссз41236100 0.0 1011389
02:00+12ссз613460 0.0 1012404
05:00+10ссз411550 0.0 1012319
08:00+12ссз47560 0.0 1014466
11:00+17сз46450 0.0 10131497
14:00+19ссз5844100 0.0 10122485
17:00+18ссз4751100 0.0 10121797
20:00+16сз23645 0.0 101365